OAL320 ORBI-OIII

Flight info

Callsign OAL320
Flight time 1h 4m
Altitude 37000
Route LAGLO G202 ILM B411 SAV
Aircraft A20N/M-SDE2E3FGHIRWXY/LB1

Departure

Time 2026-04-22 12:26
Airport Baghdad International Airport / New Al Muthana Air Base (ORBI)

Arrival

Time 2026-04-22 13:30
Airport Mehrabad International Airport (OIII)
Time Latitude Longitude Altitude Speed Heading
2026-04-22 12:13 33.27002 44.23009 121 ft 0 kts 141°
2026-04-22 12:14 33.27008 44.23004 116 ft 1 kts 141°
2026-04-22 12:14 33.27014 44.22998 116 ft 1 kts 141°
2026-04-22 12:14 33.27020 44.22992 116 ft 1 kts 141°
2026-04-22 12:14 33.27026 44.22986 117 ft 1 kts 141°
2026-04-22 12:15 33.27031 44.22980 117 ft 1 kts 141°
2026-04-22 12:15 33.27037 44.22975 118 ft 1 kts 141°
2026-04-22 12:15 33.27043 44.22969 116 ft 1 kts 141°
2026-04-22 12:15 33.27049 44.22963 116 ft 1 kts 141°
2026-04-22 12:16 33.27055 44.22957 118 ft 1 kts 140°
2026-04-22 12:16 33.27061 44.22951 119 ft 1 kts 140°
2026-04-22 12:16 33.27067 44.22946 118 ft 1 kts 140°
2026-04-22 12:16 33.27070 44.22943 119 ft 0 kts 140°
2026-04-22 12:17 33.27068 44.22945 118 ft 2 kts 136°
2026-04-22 12:17 33.27081 44.22973 119 ft 7 kts 34°
2026-04-22 12:17 33.27134 44.23004 118 ft 10 kts 52°
2026-04-22 12:18 33.27175 44.23090 120 ft 14 kts 60°
2026-04-22 12:18 33.27229 44.23200 119 ft 17 kts 59°
2026-04-22 12:18 33.27292 44.23331 118 ft 19 kts 60°
2026-04-22 12:18 33.27354 44.23456 119 ft 10 kts 59°
2026-04-22 12:19 33.27370 44.23538 118 ft 12 kts 113°
2026-04-22 12:19 33.27291 44.23606 120 ft 16 kts 151°
2026-04-22 12:19 33.27221 44.23654 121 ft 0 kts 148°
2026-04-22 12:19 33.27206 44.23666 118 ft 5 kts 148°
2026-04-22 12:20 33.27163 44.23697 119 ft 9 kts 148°
2026-04-22 12:20 33.27093 44.23747 119 ft 14 kts 150°
2026-04-22 12:20 33.26994 44.23809 117 ft 18 kts 150°
2026-04-22 12:20 33.26873 44.23891 119 ft 22 kts 150°
2026-04-22 12:21 33.26730 44.23993 119 ft 26 kts 150°
2026-04-22 12:21 33.26598 44.24083 119 ft 21 kts 149°
2026-04-22 12:21 33.26470 44.24168 119 ft 23 kts 152°
2026-04-22 12:21 33.26331 44.24265 117 ft 23 kts 148°
2026-04-22 12:22 33.26189 44.24361 118 ft 26 kts 150°
2026-04-22 12:22 33.26022 44.24476 120 ft 29 kts 150°
2026-04-22 12:22 33.25837 44.24603 118 ft 32 kts 149°
2026-04-22 12:22 33.25656 44.24724 119 ft 28 kts 149°
2026-04-22 12:23 33.25522 44.24820 117 ft 22 kts 150°
2026-04-22 12:23 33.25416 44.24891 117 ft 15 kts 151°
2026-04-22 12:23 33.25336 44.24944 119 ft 12 kts 150°
2026-04-22 12:23 33.25262 44.24995 117 ft 12 kts 149°
2026-04-22 12:24 33.25205 44.25044 115 ft 12 kts 131°
2026-04-22 12:24 33.25220 44.25136 116 ft 13 kts 59°
2026-04-22 12:24 33.25261 44.25225 116 ft 4 kts 54°
2026-04-22 12:24 33.25290 44.25237 116 ft 5 kts 346°
2026-04-22 12:25 33.25310 44.25223 118 ft 0 kts 329°
2026-04-22 12:25 33.25366 44.25184 115 ft 37 kts 330°
2026-04-22 12:25 33.25796 44.24892 120 ft 102 kts 330°
2026-04-22 12:25 33.26563 44.24370 202 ft 143 kts 332°
2026-04-22 12:26 33.27135 44.23976 624 ft 139 kts 331°
2026-04-22 12:26 33.28259 44.23191 1432 ft 144 kts 330°
2026-04-22 12:26 33.29154 44.22604 1941 ft 152 kts 330°
2026-04-22 12:26 33.30136 44.21936 2350 ft 173 kts 330°
2026-04-22 12:27 33.31339 44.21469 2767 ft 197 kts 358°
2026-04-22 12:27 33.32722 44.21937 3314 ft 223 kts 33°
2026-04-22 12:27 33.33784 44.23410 3973 ft 250 kts 64°
2026-04-22 12:27 33.34127 44.25534 4761 ft 273 kts 94°
2026-04-22 12:28 33.33549 44.27701 5859 ft 279 kts 122°
2026-04-22 12:28 33.32188 44.29361 6932 ft 284 kts 149°
2026-04-22 12:28 33.30332 44.30135 7997 ft 285 kts 177°
2026-04-22 12:28 33.28369 44.29959 9112 ft 286 kts 188°
2026-04-22 12:29 33.26373 44.30194 10169 ft 294 kts 164°
2026-04-22 12:29 33.24519 44.31401 10810 ft 318 kts 142°
2026-04-22 12:29 33.23060 44.33516 11234 ft 345 kts 119°
2026-04-22 12:29 33.22317 44.36293 11876 ft 359 kts 96°
2026-04-22 12:30 33.23048 44.41151 13414 ft 366 kts 62°
2026-04-22 12:30 33.24567 44.43583 14272 ft 368 kts 41°
2026-04-22 12:30 33.26532 44.45560 15079 ft 372 kts 39°
2026-04-22 12:31 33.28334 44.47820 15882 ft 380 kts 52°
2026-04-22 12:31 33.29665 44.50579 16673 ft 387 kts 65°
2026-04-22 12:31 33.30567 44.53641 17442 ft 394 kts 73°
2026-04-22 12:31 33.31210 44.56845 18216 ft 400 kts 77°
2026-04-22 12:32 33.31742 44.60133 18877 ft 405 kts 79°
2026-04-22 12:32 33.32748 44.66850 20199 ft 416 kts 79°
2026-04-22 12:32 33.33386 44.70241 20838 ft 420 kts 72°
2026-04-22 12:33 33.34303 44.73576 21472 ft 425 kts 70°
2026-04-22 12:33 33.35240 44.76956 22112 ft 430 kts 70°
2026-04-22 12:33 33.36096 44.80411 22731 ft 436 kts 76°
2026-04-22 12:33 33.36638 44.84003 23353 ft 442 kts 79°
2026-04-22 12:34 33.37153 44.87646 23901 ft 447 kts 79°
2026-04-22 12:34 33.37679 44.91331 24415 ft 452 kts 79°
2026-04-22 12:34 33.38213 44.95067 24918 ft 457 kts 79°
2026-04-22 12:34 33.38750 44.98831 25412 ft 461 kts 79°
2026-04-22 12:35 33.39283 45.02574 25883 ft 466 kts 79°
2026-04-22 12:35 33.39837 45.06472 26369 ft 470 kts 79°
2026-04-22 12:35 33.40386 45.10351 26822 ft 475 kts 79°
2026-04-22 12:35 33.40939 45.14265 27272 ft 479 kts 80°
2026-04-22 12:36 33.41495 45.18217 27705 ft 484 kts 80°
2026-04-22 12:36 33.42056 45.22205 28141 ft 488 kts 80°
2026-04-22 12:36 33.42619 45.26221 28555 ft 492 kts 80°
2026-04-22 12:36 33.43186 45.30276 28957 ft 496 kts 80°
2026-04-22 12:37 33.43757 45.34370 29349 ft 500 kts 80°
2026-04-22 12:37 33.44330 45.38485 29725 ft 504 kts 80°
2026-04-22 12:37 33.44907 45.42644 30092 ft 508 kts 80°
2026-04-22 12:37 33.45486 45.46823 30440 ft 511 kts 80°
2026-04-22 12:38 33.46061 45.50983 30791 ft 514 kts 80°
2026-04-22 12:38 33.46644 45.55216 31166 ft 517 kts 80°
2026-04-22 12:38 33.47236 45.59523 31572 ft 518 kts 80°
2026-04-22 12:38 33.47811 45.63718 32015 ft 517 kts 80°
2026-04-22 12:39 33.48393 45.67974 32477 ft 518 kts 80°
2026-04-22 12:39 33.49553 45.76487 33353 ft 518 kts 80°
2026-04-22 12:39 33.50131 45.80747 33779 ft 518 kts 80°
2026-04-22 12:40 33.50707 45.85008 34178 ft 518 kts 80°
2026-04-22 12:40 33.51282 45.89266 34516 ft 518 kts 81°
2026-04-22 12:40 33.51847 45.93538 34847 ft 519 kts 81°
2026-04-22 12:40 33.52390 45.97814 35164 ft 519 kts 81°
2026-04-22 12:41 33.52927 46.02096 35491 ft 520 kts 81°
2026-04-22 12:41 33.53463 46.06377 35804 ft 520 kts 81°
2026-04-22 12:41 33.54001 46.10672 36113 ft 521 kts 81°
2026-04-22 12:41 33.54540 46.14961 36449 ft 520 kts 82°
2026-04-22 12:42 33.55078 46.19257 36727 ft 521 kts 82°
2026-04-22 12:42 33.55616 46.23555 37004 ft 522 kts 82°
2026-04-22 12:42 33.56152 46.27857 37087 ft 521 kts 82°
2026-04-22 12:43 33.57286 46.36423 37083 ft 520 kts 76°
2026-04-22 12:43 33.59851 46.44462 37096 ft 516 kts 57°
2026-04-22 12:44 33.63875 46.51447 37075 ft 511 kts 50°
2026-04-22 12:44 33.68057 46.58336 37095 ft 510 kts 50°
2026-04-22 12:45 33.72247 46.65258 37076 ft 513 kts 50°
2026-04-22 12:45 33.76424 46.72175 37066 ft 510 kts 50°
2026-04-22 12:46 33.80591 46.79086 37051 ft 512 kts 50°
2026-04-22 12:46 33.84763 46.86020 37045 ft 511 kts 50°
2026-04-22 12:47 33.88921 46.92941 37039 ft 511 kts 50°
2026-04-22 12:47 33.93083 46.99883 37036 ft 511 kts 50°
2026-04-22 12:48 33.97227 47.06842 37034 ft 512 kts 53°
2026-04-22 12:48 34.00715 47.14342 37029 ft 514 kts 60°
2026-04-22 12:49 34.04022 47.21978 37025 ft 514 kts 60°
2026-04-22 12:49 34.07329 47.29612 37027 ft 514 kts 60°
2026-04-22 12:50 34.10626 47.37253 37025 ft 513 kts 60°
2026-04-22 12:50 34.13918 47.44904 37027 ft 514 kts 60°
2026-04-22 12:51 34.17200 47.52551 37026 ft 513 kts 60°
2026-04-22 12:51 34.20478 47.60203 37026 ft 513 kts 60°
2026-04-22 12:52 34.23749 47.67855 37019 ft 512 kts 60°
2026-04-22 12:52 34.27012 47.75508 37018 ft 511 kts 60°
2026-04-22 12:53 34.30262 47.83144 37021 ft 510 kts 60°
2026-04-22 12:53 34.33500 47.90767 37024 ft 509 kts 60°
2026-04-22 12:54 34.36725 47.98378 37024 ft 512 kts 60°
2026-04-22 12:54 34.39964 48.06042 37024 ft 511 kts 60°
2026-04-22 12:55 34.43202 48.13716 37025 ft 512 kts 60°
2026-04-22 12:55 34.46441 48.21414 37028 ft 511 kts 60°
2026-04-22 12:56 34.49657 48.29076 37015 ft 508 kts 61°
2026-04-22 12:56 34.52853 48.36704 37032 ft 508 kts 61°
2026-04-22 12:57 34.56061 48.44377 37041 ft 511 kts 61°
2026-04-22 12:57 34.58953 48.52254 37045 ft 513 kts 70°
2026-04-22 12:58 34.61091 48.60532 37047 ft 514 kts 72°
2026-04-22 12:58 34.63245 48.68807 37046 ft 513 kts 71°
2026-04-22 12:59 34.65389 48.77088 37039 ft 512 kts 71°
2026-04-22 12:59 34.67517 48.85345 37033 ft 512 kts 72°
2026-04-22 13:00 34.69637 48.93606 37011 ft 512 kts 72°
2026-04-22 13:00 34.71751 49.01870 37011 ft 511 kts 72°
2026-04-22 13:01 34.73843 49.10073 37003 ft 511 kts 72°
2026-04-22 13:01 34.75947 49.18346 37005 ft 512 kts 72°
2026-04-22 13:02 34.78044 49.26619 37009 ft 512 kts 72°
2026-04-22 13:02 34.80136 49.34899 37003 ft 512 kts 72°
2026-04-22 13:03 34.82224 49.43191 37004 ft 513 kts 72°
2026-04-22 13:03 34.84300 49.51462 36994 ft 510 kts 72°
2026-04-22 13:04 34.86306 49.59756 36992 ft 512 kts 76°
2026-04-22 13:04 34.88001 49.68139 36811 ft 508 kts 76°
2026-04-22 13:04 34.88856 49.72311 36295 ft 507 kts 76°
2026-04-22 13:05 34.89706 49.76469 35673 ft 506 kts 76°
2026-04-22 13:05 34.90552 49.80624 35000 ft 506 kts 76°
2026-04-22 13:05 34.91395 49.84784 34309 ft 506 kts 76°
2026-04-22 13:05 34.92236 49.88944 33608 ft 505 kts 76°
2026-04-22 13:06 34.93074 49.93099 32818 ft 505 kts 76°
2026-04-22 13:06 34.93911 49.97262 31965 ft 506 kts 76°
2026-04-22 13:06 34.94751 50.01438 31117 ft 508 kts 76°
2026-04-22 13:06 34.95591 50.05624 30332 ft 508 kts 76°
2026-04-22 13:07 34.96425 50.09792 29540 ft 506 kts 75°
2026-04-22 13:07 34.97255 50.13947 28748 ft 502 kts 76°
2026-04-22 13:07 34.98067 50.18017 28007 ft 498 kts 76°
2026-04-22 13:07 34.98892 50.22159 27280 ft 494 kts 76°
2026-04-22 13:08 34.99697 50.26210 26590 ft 489 kts 76°
2026-04-22 13:08 35.00493 50.30227 25912 ft 485 kts 76°
2026-04-22 13:08 35.01405 50.34150 25248 ft 479 kts 67°
2026-04-22 13:08 35.02855 50.37702 24655 ft 470 kts 54°
2026-04-22 13:09 35.04818 50.40783 24401 ft 451 kts 43°
2026-04-22 13:09 35.06984 50.43491 23922 ft 443 kts 42°
2026-04-22 13:09 35.09134 50.46169 23334 ft 439 kts 42°
2026-04-22 13:09 35.11260 50.48817 22709 ft 434 kts 42°
2026-04-22 13:10 35.13359 50.51432 22220 ft 427 kts 42°
2026-04-22 13:10 35.15429 50.54014 21943 ft 426 kts 42°
2026-04-22 13:10 35.17517 50.56615 21688 ft 429 kts 42°
2026-04-22 13:10 35.19590 50.59202 21415 ft 424 kts 42°
2026-04-22 13:11 35.21641 50.61766 20932 ft 420 kts 42°
2026-04-22 13:11 35.23679 50.64313 20356 ft 416 kts 43°
2026-04-22 13:11 35.25692 50.66833 19787 ft 412 kts 43°
2026-04-22 13:11 35.27686 50.69330 19221 ft 408 kts 43°
2026-04-22 13:12 35.29662 50.71806 18673 ft 404 kts 43°
2026-04-22 13:12 35.31614 50.74254 18126 ft 400 kts 43°
2026-04-22 13:12 35.33549 50.76683 17493 ft 397 kts 43°
2026-04-22 13:12 35.35466 50.79091 16920 ft 392 kts 43°
2026-04-22 13:13 35.37365 50.81479 16323 ft 389 kts 43°
2026-04-22 13:13 35.39247 50.83846 15743 ft 386 kts 43°
2026-04-22 13:13 35.41113 50.86194 15201 ft 382 kts 43°
2026-04-22 13:13 35.42910 50.88517 14643 ft 380 kts 48°
2026-04-22 13:14 35.44326 50.91304 14077 ft 381 kts 65°
2026-04-22 13:14 35.45069 50.94361 13558 ft 378 kts 80°
2026-04-22 13:14 35.45478 50.97543 12932 ft 377 kts 81°
2026-04-22 13:14 35.45883 51.00699 12396 ft 373 kts 81°
2026-04-22 13:15 35.46287 51.03826 11827 ft 370 kts 81°
2026-04-22 13:15 35.46690 51.06936 11278 ft 368 kts 81°
2026-04-22 13:15 35.47090 51.10028 10715 ft 366 kts 80°
2026-04-22 13:15 35.47487 51.13094 10262 ft 361 kts 80°
2026-04-22 13:16 35.47870 51.16073 10104 ft 346 kts 80°
2026-04-22 13:16 35.48237 51.18930 9976 ft 332 kts 81°
2026-04-22 13:16 35.48589 51.21673 9772 ft 321 kts 81°
2026-04-22 13:16 35.48933 51.24357 9450 ft 314 kts 81°
2026-04-22 13:17 35.49267 51.26972 9321 ft 310 kts 80°
2026-04-22 13:17 35.49491 51.28722 9234 ft 315 kts 80°
2026-04-22 13:17 35.49830 51.31375 9105 ft 313 kts 80°
2026-04-22 13:17 35.50164 51.33996 8982 ft 310 kts 80°
2026-04-22 13:18 35.50498 51.36615 8886 ft 311 kts 80°
2026-04-22 13:18 35.50830 51.39231 8758 ft 309 kts 80°
2026-04-22 13:18 35.51159 51.41833 8634 ft 308 kts 80°
2026-04-22 13:18 35.51487 51.44430 8506 ft 308 kts 80°
2026-04-22 13:19 35.51816 51.47033 8376 ft 308 kts 80°
2026-04-22 13:19 35.52142 51.49623 8251 ft 306 kts 79°
2026-04-22 13:19 35.52463 51.52175 8174 ft 298 kts 80°
2026-04-22 13:19 35.52772 51.54645 8082 ft 287 kts 79°
2026-04-22 13:20 35.53065 51.57012 7993 ft 275 kts 79°
2026-04-22 13:20 35.53347 51.59267 7983 ft 259 kts 79°
2026-04-22 13:20 35.53612 51.61393 7981 ft 245 kts 79°
2026-04-22 13:20 35.53863 51.63395 7978 ft 229 kts 79°
2026-04-22 13:21 35.54098 51.65278 7979 ft 221 kts 79°
2026-04-22 13:21 35.54427 51.67154 7969 ft 226 kts 60°
2026-04-22 13:21 35.55394 51.68598 7981 ft 216 kts 26°
2026-04-22 13:21 35.56763 51.69098 7968 ft 197 kts 349°
2026-04-22 13:22 35.57967 51.68524 7986 ft 187 kts 310°
2026-04-22 13:22 35.58591 51.67159 7992 ft 187 kts 286°
2026-04-22 13:22 35.58951 51.65625 7987 ft 185 kts 284°
2026-04-22 13:22 35.59345 51.64170 8013 ft 175 kts 287°
2026-04-22 13:23 35.59751 51.62754 7987 ft 175 kts 288°
2026-04-22 13:23 35.60158 51.61346 8001 ft 181 kts 288°
2026-04-22 13:23 35.60581 51.59874 7994 ft 181 kts 288°
2026-04-22 13:23 35.60990 51.58463 8003 ft 166 kts 288°
2026-04-22 13:24 35.61349 51.57215 8001 ft 148 kts 288°
2026-04-22 13:24 35.61682 51.56053 7865 ft 140 kts 288°
2026-04-22 13:24 35.62003 51.54944 7702 ft 137 kts 289°
2026-04-22 13:24 35.62320 51.53853 7509 ft 134 kts 288°
2026-04-22 13:25 35.62631 51.52773 7338 ft 134 kts 289°
2026-04-22 13:25 35.62939 51.51706 7150 ft 131 kts 289°
2026-04-22 13:25 35.63240 51.50662 6979 ft 128 kts 289°
2026-04-22 13:25 35.63543 51.49611 6805 ft 133 kts 289°
2026-04-22 13:26 35.63855 51.48532 6628 ft 135 kts 288°
2026-04-22 13:26 35.64169 51.47445 6444 ft 134 kts 288°
2026-04-22 13:26 35.64481 51.46370 6251 ft 134 kts 289°
2026-04-22 13:26 35.64794 51.45286 6052 ft 135 kts 289°
2026-04-22 13:27 35.65105 51.44209 5864 ft 132 kts 290°
2026-04-22 13:27 35.65413 51.43151 5671 ft 132 kts 290°
2026-04-22 13:27 35.65716 51.42098 5467 ft 128 kts 289°
2026-04-22 13:27 35.66013 51.41080 5307 ft 126 kts 289°
2026-04-22 13:28 35.66305 51.40069 5117 ft 124 kts 288°
2026-04-22 13:28 35.66588 51.39092 4925 ft 119 kts 287°
2026-04-22 13:28 35.66863 51.38145 4739 ft 117 kts 287°
2026-04-22 13:28 35.67136 51.37198 4545 ft 119 kts 286°
2026-04-22 13:29 35.67415 51.36238 4362 ft 120 kts 287°
2026-04-22 13:29 35.67700 51.35277 4190 ft 118 kts 287°
2026-04-22 13:29 35.67970 51.34346 4021 ft 113 kts 286°
2026-04-22 13:29 35.68214 51.33451 3833 ft 110 kts 287°
2026-04-22 13:30 35.68442 51.32674 3830 ft 69 kts 290°
2026-04-22 13:30 35.68537 51.32349 3842 ft 12 kts 290°
2026-04-22 13:30 35.68560 51.32273 3843 ft 8 kts 290°
2026-04-22 13:30 35.68576 51.32220 3848 ft 5 kts 290°
2026-04-22 13:31 35.68591 51.32171 3845 ft 8 kts 290°
2026-04-22 13:31 35.68622 51.32123 3845 ft 7 kts 343°
2026-04-22 13:31 35.68668 51.32126 3852 ft 6 kts
2026-04-22 13:31 35.68708 51.32131 3856 ft 5 kts
2026-04-22 13:32 35.68744 51.32134 3863 ft 6 kts
2026-04-22 13:32 35.68800 51.32136 3863 ft 10 kts
2026-04-22 13:32 35.68868 51.32116 3866 ft 10 kts 343°
2026-04-22 13:32 35.68924 51.32077 3865 ft 8 kts 307°
2026-04-22 13:33 35.68942 51.32026 3871 ft 4 kts 290°
2026-04-22 13:33 35.68957 51.32017 3871 ft 2 kts 355°
2026-04-22 13:33 35.68974 51.32034 3869 ft 6 kts 41°
2026-04-22 13:33 35.68999 51.32080 3867 ft 6 kts 58°
2026-04-22 13:34 35.69003 51.32089 3868 ft 1 kts 58°
2026-04-22 13:34 35.69008 51.32099 3866 ft 1 kts 58°
2026-04-22 13:34 35.69009 51.32099 3866 ft 0 kts 58°
2026-04-22 13:50 35.69007 51.32096 3864 ft 1 kts 58°
2026-04-22 13:50 35.69003 51.32088 3870 ft 1 kts 57°
2026-04-22 13:50 35.68999 51.32080 3869 ft 1 kts 57°
2026-04-22 13:51 35.68994 51.32072 3868 ft 1 kts 57°
2026-04-22 13:51 35.68990 51.32064 3868 ft 1 kts 57°
2026-04-22 13:51 35.68988 51.32059 3870 ft 1 kts 57°
2026-04-22 13:51 35.68984 51.32051 3868 ft 1 kts 57°
2026-04-22 13:52 35.68979 51.32043 3869 ft 1 kts 57°
2026-04-22 13:52 35.68975 51.32035 3871 ft 1 kts 57°
2026-04-22 13:52 35.68971 51.32027 3871 ft 1 kts 57°
2026-04-22 13:52 35.68967 51.32019 3867 ft 1 kts 57°
2026-04-22 13:53 35.68963 51.32011 3867 ft 1 kts 57°
2026-04-22 13:53 35.68959 51.32003 3871 ft 1 kts 57°
2026-04-22 13:53 35.68955 51.31995 3872 ft 1 kts 76°
2026-04-22 13:53 35.68953 51.31986 3872 ft 1 kts 103°
2026-04-22 13:54 35.68953 51.31985 3872 ft 0 kts 105°
2026-04-22 13:54 35.68946 51.32012 3871 ft 6 kts 108°
2026-04-22 13:54 35.68927 51.32083 3865 ft 12 kts 109°
2026-04-22 13:55 35.68894 51.32200 3864 ft 17 kts 110°
2026-04-22 13:55 35.68846 51.32363 3852 ft 23 kts 109°
2026-04-22 13:55 35.68787 51.32563 3844 ft 28 kts 109°
2026-04-22 13:55 35.68716 51.32810 3836 ft 29 kts 110°
2026-04-22 13:56 35.68658 51.33013 3828 ft 25 kts 111°
2026-04-22 13:56 35.68609 51.33184 3823 ft 23 kts 109°
2026-04-22 13:56 35.68564 51.33338 3817 ft 12 kts 109°
2026-04-22 13:56 35.68534 51.33439 3811 ft 14 kts 117°
2026-04-22 13:57 35.68443 51.33480 3811 ft 15 kts 185°
2026-04-22 13:57 35.68344 51.33440 3810 ft 11 kts 201°
2026-04-22 13:57 35.68331 51.33434 3810 ft 3 kts 202°
2026-04-22 13:57 35.68300 51.33418 3809 ft 7 kts 203°
2026-04-22 13:58 35.68245 51.33386 3808 ft 7 kts 221°
2026-04-22 13:58 35.68241 51.33359 3809 ft 1 kts 276°
2026-04-22 13:58 35.68257 51.33295 3812 ft 22 kts 289°
2026-04-22 13:58 35.68385 51.32859 3827 ft 84 kts 290°
2026-04-22 13:59 35.68643 51.31988 3851 ft 131 kts 290°
2026-04-22 13:59 35.68985 51.30823 4167 ft 148 kts 289°
2026-04-22 13:59 35.69375 51.29632 4759 ft 152 kts 291°
2026-04-22 13:59 35.69819 51.28431 5390 ft 156 kts 292°
2026-04-22 14:00 35.70213 51.27157 5897 ft 168 kts 280°
2026-04-22 14:00 35.70319 51.25618 6250 ft 191 kts 272°
2026-04-22 14:00 35.70324 51.23892 6635 ft 214 kts 272°
2026-04-22 14:00 35.70354 51.21960 7036 ft 238 kts 274°
2026-04-22 14:01 35.70434 51.19836 7512 ft 258 kts 274°
2026-04-22 14:01 35.70553 51.17622 8266 ft 265 kts 275°
2026-04-22 14:01 35.70691 51.15369 9273 ft 264 kts 275°
2026-04-22 14:01 35.70834 51.13111 10175 ft 267 kts 275°
2026-04-22 14:02 35.70984 51.10751 10581 ft 288 kts 275°
2026-04-22 14:02 35.71143 51.08196 10859 ft 311 kts 275°
2026-04-22 14:02 35.71311 51.05495 11460 ft 320 kts 274°
2026-04-22 14:02 35.71479 51.02763 12325 ft 322 kts 274°
2026-04-22 14:03 35.71637 50.99993 13092 ft 326 kts 274°
2026-04-22 14:03 35.71791 50.97191 13876 ft 330 kts 274°
2026-04-22 14:03 35.71943 50.94363 14593 ft 333 kts 274°
2026-04-22 14:03 35.72098 50.91503 15285 ft 337 kts 274°
2026-04-22 14:04 35.72256 50.88608 15975 ft 340 kts 274°
2026-04-22 14:04 35.72416 50.85691 16678 ft 344 kts 274°
2026-04-22 14:04 35.72579 50.82741 17367 ft 347 kts 274°
2026-04-22 14:04 35.72743 50.79769 18039 ft 350 kts 274°
2026-04-22 14:05 35.72911 50.76767 18666 ft 353 kts 274°
2026-04-22 14:05 35.73350 50.73793 19278 ft 356 kts 289°
2026-04-22 14:05 35.76445 50.68997 20440 ft 371 kts 319°
2026-04-22 14:06 35.78573 50.67151 21023 ft 376 kts 322°
2026-04-22 14:06 35.80762 50.65369 21602 ft 379 kts 322°
2026-04-22 14:06 35.82984 50.63584 22168 ft 382 kts 323°
2026-04-22 14:06 35.85222 50.61792 22733 ft 385 kts 323°
2026-04-22 14:07 35.87240 50.60177 23238 ft 388 kts 323°